Location: Dumpton Point
(51.3500°N, 1.4433°E)
Time: 03:31:09
(UTC+00:00)

FALCON 9 DEB - Pass Details

Date: 09 April 2020
Orbit: 429 x 442 km, 53.0° (Epoch: 26 May)

Event Time Altitude Azimuth Distance (km) Brightness Sun altitude
Rises 19:26:23 0° 217° (SW) 2,423 7.1 -7.5°
Reaches altitude 10° 19:28:39 10° 206° (SSW) 1,556 6.0 -7.8°
Maximum altitude 19:31:44 29° 145° (SE) 838 4.1 -8.3°
Drops below altitude 10° 19:34:49 10° 83° (E) 1,560 5.4 -8.7°
Enters shadow 19:35:12 - 81° (E) 1,702 5.6 -8.7°
